Location: Unspecified
(35.1378°N, 0.0000°E)
Time: 04:51:36
(UTC+00:00)

deb Transit VC - Visible Passes

Search period start: 04 April 2026 00:00
Search period end: 14 April 2026 00:00
Orbit: 837 x 906 km, 90.5° (Epoch: 29 March)

Date Brightness Start Highest point End Pass type
(mag) Time Alt. Az. Time Alt. Az. Time Alt. Az.
9 Apr ? 22:47:24 10° NNE 22:47:24 10° NNE 22:47:27 10° NNE visible
10 Apr ? 22:41:29 11° NNE 22:41:29 11° NNE 22:41:38 10° NNE visible
11 Apr ? 22:35:34 11° NNE 22:35:34 11° NNE 22:35:49 10° NNE visible
12 Apr ? 22:29:39 12° NNE 22:29:39 12° NNE 22:29:59 10° NNE visible
13 Apr ? 22:23:44 12° NNE 22:23:44 12° NNE 22:24:10 10° NNE visible
